Location: Dallas
(32.7833°N, 96.8000°W)
Time: 22:58:54
(UTC-06:00)

Envisat - Pass Details

Date: 27 October 2019
Orbit: 764 x 766 km, 98.1° (Epoch: 13 November)

Event Time Altitude Azimuth Distance (km) Brightness Sun altitude
Rises 19:46:16 0° 172° (S) 3,216 6.2 -14.3°
Reaches altitude 10° 19:48:34 10° 174° (S) 2,293 5.5 -14.8°
Maximum altitude 19:53:36 70° 258° (WSW) 812 3.3 -15.8°
Drops below altitude 10° 19:58:41 10° 343° (NNW) 2,306 5.6 -16.9°
Sets 20:01:00 0° 345° (NNW) 3,235 6.4 -17.4°
